Live-Position
3D-Globus wird geladen...
Über Starlink 1656
Group: 3 satellites
Beschreibung wird geladen...
Nächste Überflüge
Passes for default location (London). Set your location on the main map for personalized predictions.
Höhenverlauf
Loading altitude history...
No altitude history available
Zweizeiliger Elementsatz
1 46353U 20062AE 26119.56034429 .00122850 00000-0 13534-2 0 9999
2 46353 53.0431 112.7688 0008389 37.8978 322.2624 15.62217269312471
Epoch: 29. Apr. 2026 •
Age: 8 hours
Aktueller Status
Höhe 380.5 km
Geschwindigkeit 7.69 km/s
Subsatellitenpunkt 45.19°N,
18.68°W
Startdatum 3. Sept. 2020
Alter 5.6 years
Typ internet
Startgruppe
Falcon 9 •
Launch 11 •
20 satellites
Starlink 1654
46326
Starlink 1686 46328
Starlink 1695 46329
Starlink 1719 46331
Starlink 1727 46335
Starlink 1759 46340
Starlink 1762 46342
Starlink 1764 46343
Starlink 1547 46347
Starlink 1553 46348
Starlink 1646 46351
Starlink 1653 46352
Starlink 1661 46355
Starlink 1665 46356
Starlink 1666 46357
Starlink 1707 46359
Starlink 1724 46375
Starlink 1770 46383
Starlink 1771 46384
Technische Details
Klassifizierung Payload
Masse 260.00 kg
Trockenmasse 248.00 kg
Gesamtmasse 260.00 kg
Länge 0.20 m
Durchmesser 2.80 m
Spannweite 9.00 m
Form Box + pan
Hersteller SPXS
Bus-Typ Starlink
Phasenstatus In Orbit
Besitzer/Staat SPXS/US
Most Searched
Loading...